STARLINK-36742

Last updated on Wed Mar 25 2026 00:02:05 GMT+0000 (Coordinated Universal Time)

1 67907U 26036D 26083.50002314 -.01871944 00000+0 -52255-1 0 9995 2 67907 42.9979 162.0452 0001333 265.2671 49.4457 15.39335495 6028
UTC large
Height (km)
Speed (km/s)
/
Latitude / Longitude
Inclination (degrees)
Orbital Period (minutes)
Azimuth
Elevation
Range (km)
Doppler Factor

Next 0 passes for location: London (51.5072 / 0.1276)

Sorry there are no passes over London.